Regional Weather Roundup
Issued by NWS Cleveland, OH

Home | Current Version | Previous Version | Graphics & Text | Print | Product List | Glossary On
Versions: 1 2 3 4 5 6 7 8 9 10 11 12 13 14 15 16 17 18 19 20 21 22 23 24 25 26 27 28 29 30 31 32 33 34 35 36 37 38 39 40 41 42 43 44 45 46 47 48 49 50
000
ASUS41 KCLE 280810
RWRCLE
OHIO REGIONAL WEATHER ROUNDUP
NATIONAL WEATHER SERVICE WILMINGTON, OH
400 AM EDT WED JUN 28 2017

NOTE: "FAIR" INDICATES FEW OR NO CLOUDS BELOW 12,000 FEET WITH NO
SIGNIFICANT WEATHER AND/OR OBSTRUCTIONS TO VISIBILITY.

OHZ001>008-015>018-024>027-034-035-043-044-280900-
   NORTHWEST OHIO

CITY           SKY/WX    TMP DP  RH WIND       PRES   REMARKS
DEFIANCE       FAIR      51  48  89 CALM      30.11R
FINDLAY        FAIR      57  47  69 S3        30.11R
TOLEDO EXPRESS FAIR      49  49 100 SW3       30.09S
TOLEDO EXEC    FAIR      55  51  86 CALM      30.11R
LIMA           FAIR      56  47  71 S3        30.12S
$$

OHZ009>014-019>023-028>033-038-089-280900-
   NORTHEAST OHIO

CITY           SKY/WX    TMP DP  RH WIND       PRES   REMARKS
CLE-HOPKINS    FAIR      58  46  64 SW5       30.12R
CLE-LAKEFRONT  FAIR      63  44  50 SW12      30.08R
CUY CO. ARPT   NOT AVBL
LORAIN-ELYRIA  FAIR      54  44  69 SW7       30.11R
ASHTABULA      CLOUDY    58  47  66 SW5       30.09F
AKRON-CANTON   FAIR      54  44  69 SW5       30.12S
WOOSTER        FAIR      53  47  79 SW3       30.13R
MANSFIELD      FAIR      54  44  69 SW6       30.13R
YOUNGSTOWN     FAIR      54  45  71 SW7       30.11S
$$

OHZ042-051>053-060>062-070>072-077>081-280900-
  SOUTHWEST OHIO

CITY           SKY/WX    TMP DP  RH WIND       PRES   REMARKS
CINC-COVINGTON FAIR      55  54  96 CALM      30.13S
CINC-LUNKEN    FAIR      52  52 100 CALM      30.15S
HAMILTON       FAIR      51  50  96 CALM      30.15R
DAYTON         FAIR      58  46  64 S6        30.15R
WRIGHT-PAT AFB FAIR      54  51  91 CALM      30.14R
DAYTON GENERAL FAIR      56  48  74 CALM      30.13S
WILMINGTON     FAIR      53  51  93 CALM      30.14S
$$

OHZ036-037-039>041-045>050-054>059-063>069-073>076-082>088-280900-
  CENTRAL AND SOUTHEAST OHIO

CITY           SKY/WX    TMP DP  RH WIND       PRES   REMARKS
COLUMBUS       FAIR      53  51  93 CALM      30.14R
OSU AIRPORT    FAIR      53  49  86 CALM      30.14R
BOLTON FIELD   FAIR      52  49  89 SW3       30.15S
RICKENBACK AFB FAIR      52  50  92 CALM      30.14S
NEWARK         FAIR      48  46  93 CALM      30.14R
MARION         FAIR      53  46  77 SW6       30.14R
LANCASTER      FAIR      49  47  93 CALM      30.15R
ZANESVILLE     FAIR      50  48  93 CALM      30.14S
NEW PHILLY     FAIR      50  48  93 CALM      30.15R
$$




USA.gov is the U.S. government's official web portal to all federal, state and local government web resources and services.